Location: Dzierzno
(50.6159°N, 19.2852°E)
Time: 22:01:03
(UTC+00:00)

Okean 2 Rocket - Pass Details

Date: 18 November 2025
Orbit: 610 x 635 km, 82.5° (Epoch: 05 December)

Event Time Altitude Azimuth Distance (km) Brightness Sun altitude
Rises 17:11:20 0° 190° (S) 2,884 6.7 -21.6°
Reaches altitude 10° 17:13:33 10° 191° (S) 1,979 5.8 -22.0°
Maximum altitude 17:17:56 84° 278° (W) 626 3.0 -22.7°
Enters shadow 17:20:01 31° 7° (N) 1,089 4.2 -23.0°
